Location: Paderno d�Adda
(45.6667°N, 9.4333°E)
Time: 15:57:26
(UTC+00:00)

SWAS - Pass Details

Date: 19 September 2020
Orbit: 581 x 590 km, 69.9° (Epoch: 20 October)

Event Time Altitude Azimuth Distance (km) Brightness Sun altitude
Rises 19:39:26 0° 331° (NNW) 2,827 8.8 -23.4°
Reaches altitude 10° 19:41:41 10° 331° (NNW) 1,921 7.8 -23.7°
Enters shadow 19:45:48 80° 297° (WNW) 600 4.4 -24.3°
